When you browse on this site, cookies collect data to enhance your experience and personalize the content and advertising you see.
Visit our Privacy Policy to learn more. By continuing to use the site, you agree to this use of cookies and data.
  • en France
  • Liste des pays
  • À 7 jours
  • Température de l'eau
  • Carte satellitaire
  • Carte météo
  • Widgets météo
  • user-avatar
    Se connecter

    Météo par heure à Pamporovo

    Ce jour, 23 Mars, Samedi

    Heure Température Précipitation Vent Pression Humidité
    00:00 +1°C° 0 mm 1 m/s 627 mmHg 76%
    01:00 +1°C° 0 mm 1 m/s 627 mmHg 78%
    02:00 0°C° 0 mm 1 m/s 627 mmHg 80%
    03:00 0°C° 0 mm 1 m/s 627 mmHg 82%
    04:00 0°C° 0 mm 1 m/s 626 mmHg 84%
    05:00 0°C° 0 mm 1 m/s 626 mmHg 86%
    06:00 +1°C° 0 mm 1 m/s 627 mmHg 81%
    07:00 +2°C° 0 mm 1 m/s 627 mmHg 76%
    08:00 +3°C° 0 mm 1 m/s 628 mmHg 71%
    09:00 +5°C° 0 mm 1 m/s 628 mmHg 64%
    10:00 +7°C° 0 mm 1 m/s 629 mmHg 57%
    11:00 +9°C° 0 mm 1 m/s 630 mmHg 50%
    12:00 +9°C° 0 mm 2 m/s 630 mmHg 48%
    13:00 +9°C° 0 mm 2 m/s 630 mmHg 46%
    14:00 +10°C° 0 mm 2 m/s 630 mmHg 44%
    15:00 +9°C° 0 mm 2 m/s 629 mmHg 45%
    16:00 +8°C° 0 mm 2 m/s 628 mmHg 47%
    17:00 +8°C° 0 mm 2 m/s 628 mmHg 48%
    18:00 +6°C° 0 mm 2 m/s 627 mmHg 59%
    19:00 +5°C° 0 mm 1 m/s 627 mmHg 70%
    20:00 +3°C° 0 mm 1 m/s 626 mmHg 81%
    21:00 +2°C° 0 mm 1 m/s 626 mmHg 84%
    22:00 +2°C° 0 mm 1 m/s 626 mmHg 87%
    23:00 +1°C° 0 mm 1 m/s 626 mmHg 89%

    Demain, 24 Mars, Dimanche

    Heure Température Précipitation Vent Pression Humidité
    00:00 +1°C° 0 mm 1 m/s 626 mmHg 89%
    01:00 0°C° 0 mm 1 m/s 626 mmHg 89%
    02:00 0°C° 0 mm 1 m/s 626 mmHg 89%
    03:00 -1°C° 0 mm 1 m/s 626 mmHg 88%
    04:00 -1°C° 0 mm 1 m/s 625 mmHg 87%
    05:00 -2°C° 0 mm 1 m/s 625 mmHg 85%
    06:00 0°C° 0 mm 1 m/s 626 mmHg 80%
    07:00 +1°C° 0 mm 1 m/s 626 mmHg 75%
    08:00 +2°C° 0 mm 1 m/s 627 mmHg 69%
    09:00 +2°C° 0 mm 2 m/s 627 mmHg 63%
    10:00 +4°C° 0 mm 2 m/s 628 mmHg 56%
    11:00 +5°C° 0 mm 3 m/s 629 mmHg 49%
    12:00 +5°C° 0 mm 3 m/s 628 mmHg 46%
    13:00 +7°C° 0 mm 3 m/s 628 mmHg 44%
    14:00 +8°C° 0 mm 3 m/s 628 mmHg 41%
    15:00 +7°C° 0 mm 3 m/s 627 mmHg 43%
    16:00 +7°C° 0 mm 3 m/s 627 mmHg 45%
    17:00 +6°C° 0 mm 2 m/s 626 mmHg 48%
    18:00 +5°C° 0 mm 2 m/s 626 mmHg 56%
    19:00 +4°C° 0 mm 1 m/s 625 mmHg 64%
    20:00 +2°C° 0 mm 1 m/s 625 mmHg 72%
    21:00 +1°C° 0 mm 1 m/s 625 mmHg 71%
    22:00 +1°C° 0 mm 1 m/s 625 mmHg 70%
    23:00 0°C° 0 mm 1 m/s 625 mmHg 69%

    Après-demain, 25 Mars, Lundi

    Heure Température Précipitation Vent Pression Humidité
    00:00 0°C° 0 mm 1 m/s 624 mmHg 68%
    01:00 0°C° 0 mm 1 m/s 624 mmHg 67%
    02:00 0°C° 0 mm 1 m/s 624 mmHg 66%
    03:00 0°C° 0 mm 1 m/s 623 mmHg 65%
    04:00 0°C° 0 mm 1 m/s 623 mmHg 64%
    05:00 -1°C° 0 mm 1 m/s 623 mmHg 64%
    06:00 +1°C° 0 mm 1 m/s 623 mmHg 60%
    07:00 +2°C° 0 mm 0 m/s 624 mmHg 55%
    08:00 +3°C° 0 mm 0 m/s 625 mmHg 51%
    09:00 +5°C° 0 mm 0 m/s 625 mmHg 46%
    10:00 +9°C° 0 mm 1 m/s 626 mmHg 41%
    11:00 +11°C° 0 mm 1 m/s 626 mmHg 36%
    12:00 +11°C° 0 mm 1 m/s 626 mmHg 37%
    13:00 +12°C° 0 mm 1 m/s 625 mmHg 37%
    14:00 +12°C° 0 mm 1 m/s 625 mmHg 38%
    15:00 +11°C° 0 mm 1 m/s 624 mmHg 43%
    16:00 +10°C° 0 mm 1 m/s 623 mmHg 48%
    17:00 +9°C° 0 mm 1 m/s 623 mmHg 53%
    18:00 +7°C° 0 mm 1 m/s 622 mmHg 64%
    19:00 +6°C° 0 mm 1 m/s 621 mmHg 75%
    20:00 +4°C° 0 mm 1 m/s 621 mmHg 85%
    21:00 +4°C° 0 mm 1 m/s 620 mmHg 87%
    22:00 +3°C° 0 mm 1 m/s 620 mmHg 89%
    23:00 +3°C° 0 mm 1 m/s 620 mmHg 91%

    26 Mars, Mardi

    Heure Température Précipitation Vent Pression Humidité
    00:00 +3°C° 0 mm 1 m/s 620 mmHg 90%
    01:00 +3°C° 0 mm 1 m/s 620 mmHg 89%
    02:00 +2°C° 0 mm 1 m/s 620 mmHg 88%
    03:00 +2°C° 0 mm 1 m/s 619 mmHg 88%
    04:00 +2°C° 0 mm 1 m/s 619 mmHg 87%
    05:00 +2°C° 0 mm 1 m/s 619 mmHg 86%
    06:00 +3°C° 0 mm 1 m/s 620 mmHg 81%
    07:00 +4°C° 0 mm 1 m/s 621 mmHg 76%
    08:00 +5°C° 0 mm 1 m/s 621 mmHg 70%
    09:00 +5°C° 0.3 mm 1 m/s 622 mmHg 69%
    10:00 +5°C° 0.3 mm 2 m/s 622 mmHg 67%
    11:00 +5°C° 0.3 mm 2 m/s 622 mmHg 66%
    12:00 +4°C° 0.7 mm 2 m/s 622 mmHg 70%
    13:00 +3°C° 0.7 mm 2 m/s 621 mmHg 75%
    14:00 +2°C° 0.7 mm 2 m/s 621 mmHg 79%
    15:00 +2°C° 1.1 mm 2 m/s 621 mmHg 81%
    16:00 +1°C° 1.1 mm 2 m/s 620 mmHg 82%
    17:00 -1°C° 1.1 mm 2 m/s 620 mmHg 83%
    18:00 -1°C° 0.4 mm 2 m/s 621 mmHg 84%
    19:00 -2°C° 0.4 mm 2 m/s 621 mmHg 84%
    20:00 -2°C° 0.4 mm 2 m/s 621 mmHg 84%
    21:00 -3°C° 0.6 mm 2 m/s 622 mmHg 86%
    22:00 -3°C° 0.6 mm 2 m/s 622 mmHg 88%
    23:00 -4°C° 0.6 mm 2 m/s 622 mmHg 90%

    27 Mars, Mercredi

    Heure Température Précipitation Vent Pression Humidité
    00:00 -4°C° 0.9 mm 2 m/s 622 mmHg 91%
    01:00 -5°C° 0.9 mm 3 m/s 622 mmHg 92%
    02:00 -6°C° 0.9 mm 3 m/s 622 mmHg 93%
    03:00 -6°C° 0.5 mm 3 m/s 622 mmHg 93%
    04:00 -6°C° 0.5 mm 3 m/s 622 mmHg 92%
    05:00 -7°C° 0.5 mm 3 m/s 622 mmHg 92%
    06:00 -7°C° 0.2 mm 3 m/s 623 mmHg 91%
    07:00 -6°C° 0.2 mm 3 m/s 623 mmHg 90%
    08:00 -6°C° 0.2 mm 3 m/s 623 mmHg 89%
    09:00 -6°C° 0.2 mm 3 m/s 624 mmHg 86%
    10:00 -5°C° 0.2 mm 3 m/s 624 mmHg 84%
    11:00 -5°C° 0.2 mm 4 m/s 624 mmHg 81%
    12:00 -4°C° 0.1 mm 3 m/s 625 mmHg 79%
    13:00 -2°C° 0.1 mm 3 m/s 625 mmHg 77%
    14:00 -2°C° 0.1 mm 3 m/s 625 mmHg 74%
    15:00 -2°C° 0 mm 3 m/s 625 mmHg 74%
    16:00 -2°C° 0 mm 3 m/s 625 mmHg 74%
    17:00 -2°C° 0 mm 3 m/s 625 mmHg 73%
    18:00 -4°C° 0 mm 3 m/s 625 mmHg 78%
    19:00 -4°C° 0 mm 2 m/s 624 mmHg 83%
    20:00 -5°C° 0 mm 2 m/s 624 mmHg 88%
    21:00 -6°C° 0 mm 2 m/s 624 mmHg 89%
    22:00 -6°C° 0 mm 2 m/s 624 mmHg 90%
    23:00 -7°C° 0 mm 2 m/s 625 mmHg 91%

    28 Mars, Jeudi

    Heure Température Précipitation Vent Pression Humidité
    00:00 -7°C° 0 mm 2 m/s 624 mmHg 92%
    01:00 -7°C° 0 mm 1 m/s 624 mmHg 92%
    02:00 -7°C° 0 mm 1 m/s 624 mmHg 93%
    03:00 -7°C° 0 mm 1 m/s 624 mmHg 92%
    04:00 -8°C° 0 mm 1 m/s 624 mmHg 91%
    05:00 -8°C° 0 mm 1 m/s 624 mmHg 90%
    06:00 -6°C° 0 mm 1 m/s 625 mmHg 84%
    07:00 -6°C° 0 mm 2 m/s 626 mmHg 79%
    08:00 -4°C° 0 mm 2 m/s 627 mmHg 74%
    09:00 -3°C° 0 mm 2 m/s 627 mmHg 71%
    10:00 -2°C° 0 mm 2 m/s 628 mmHg 69%
    11:00 -1°C° 0 mm 3 m/s 628 mmHg 66%
    12:00 -1°C° 0.2 mm 3 m/s 628 mmHg 66%
    13:00 -1°C° 0.2 mm 3 m/s 628 mmHg 67%
    14:00 0°C° 0.2 mm 3 m/s 628 mmHg 67%
    15:00 -1°C° 0.2 mm 3 m/s 627 mmHg 69%
    16:00 -1°C° 0.2 mm 3 m/s 627 mmHg 71%
    17:00 -2°C° 0.2 mm 3 m/s 627 mmHg 73%
    18:00 -4°C° 0.1 mm 3 m/s 627 mmHg 76%
    19:00 -6°C° 0.1 mm 3 m/s 626 mmHg 80%
    20:00 -6°C° 0.1 mm 2 m/s 626 mmHg 83%
    21:00 -7°C° 0 mm 2 m/s 626 mmHg 83%
    22:00 -7°C° 0 mm 2 m/s 626 mmHg 82%
    23:00 -8°C° 0 mm 2 m/s 626 mmHg 82%
    Voir plus